Folgueroles





Hora UTC 23:25
Temperatura 8.2 ºC
Humitat 93.0 %
Pressió 1028.0 hPa
Pluja 0.0 mm
Velocitat vent 0.0 km/h
Direcció vent S

Dades diàries 2020-10-29



Hora UTC (hivern +1h; estiu +2h)
Temperatura (ºC) Humitat (%) Pressió (hPa) Velocitat vent (km/h) Precipitació (mm)
Hora UTC Aire Humitat Pressió Vel. Dir. Vel. Max Dir. Intent. màx 5 min.
00:00 7.5 91.0 1025.7 0.0 SSE 0.0 0.0
00:05 7.5 91.0 1025.8 0.0 SSE 0.0 0.0
00:10 7.4 91.0 1025.8 0.0 SSE 0.0 0.0
00:15 7.3 91.0 1025.7 0.0 SSE 0.0 0.0
00:20 7.3 91.0 1025.7 0.0 SSE 0.0 0.0
00:25 7.2 92.0 1025.7 0.0 SSE 0.0 0.0
00:30 7.1 91.0 1025.6 0.0 SSE 0.0 0.0
00:35 7.1 92.0 1025.7 0.0 SSE 0.0 0.0
00:40 7.1 92.0 1025.8 0.0 SSE 0.0 0.0
00:45 7.1 92.0 1025.9 0.0 SSE 0.0 0.0
00:50 7.1 92.0 1026.1 0.0 SSE 0.0 0.0
00:55 7.2 93.0 1025.9 0.0 SSE 0.0 0.0
01:00 7.2 93.0 1026.0 0.0 SSE 0.0 0.0
01:05 7.2 93.0 1026.1 0.0 SSE 0.0 0.0
01:10 7.1 93.0 1026.1 0.0 SSE 0.0 0.0
01:15 7.1 93.0 1026.0 0.0 SSE 0.0 0.0
01:20 7.1 93.0 1026.1 0.0 SSE 0.0 0.0
01:25 7.1 93.0 1026.1 0.0 SSE 0.0 0.0
01:30 7.0 93.0 1026.2 0.0 SSE 0.0 0.0
01:35 7.0 93.0 1026.2 0.0 SSE 0.0 0.0
01:40 7.1 93.0 1026.1 0.0 SSE 0.0 0.0
01:45 7.1 93.0 1026.0 0.0 SSE 0.0 0.0
01:55 6.9 93.0 1025.8 0.0 SSE 0.0 0.0
01:55 6.9 93.0 1025.8 0.0 SSE 0.0 0.0
02:00 6.9 93.0 1025.7 0.0 SSE 0.0 0.0
02:05 6.8 93.0 1026.0 0.0 SSE 0.0 0.0
02:10 6.8 93.0 1025.8 0.0 SSE 0.0 0.0
02:15 6.8 93.0 1025.7 0.0 SSE 0.0 0.0
02:20 6.8 93.0 1025.5 0.0 SSE 0.0 0.0
02:25 6.8 93.0 1025.6 0.0 SSE 0.0 0.0
02:30 6.8 93.0 1025.5 0.0 SSE 0.0 0.0
02:35 6.8 93.0 1025.7 0.0 SSE 0.0 0.0
02:40 6.8 93.0 1025.9 0.0 SSE 0.0 0.0
02:45 6.7 93.0 1025.9 0.0 SSE 0.0 0.0
02:50 6.6 93.0 1026.0 0.0 SSE 0.0 0.0
02:55 6.6 93.0 1026.2 0.0 SSE 0.0 0.0
03:00 6.6 94.0 1026.0 0.0 SSE 0.0 0.0
03:05 6.7 94.0 1025.8 0.0 SSE 0.0 0.0
03:10 6.6 93.0 1025.7 0.0 SSE 0.0 0.0
03:15 6.5 93.0 1025.8 0.0 SSE 0.0 0.0
03:20 6.4 93.0 1026.0 0.0 SSE 0.0 0.0
03:25 6.4 93.0 1025.8 0.0 SSE 0.0 0.0
03:30 6.4 93.0 1025.9 0.0 SSE 0.0 0.0
03:35 6.5 94.0 1025.8 0.0 SSE 0.0 0.0
03:40 6.5 94.0 1025.9 0.0 SSE 0.0 0.0
03:50 6.6 94.0 1026.1 0.0 SSE 0.0 0.0
03:55 6.6 94.0 1026.4 0.0 SSE 0.0 0.0
04:00 6.7 94.0 1026.6 0.0 SSE 0.0 0.0
04:05 6.8 94.0 1026.6 0.0 SSE 0.0 0.0
04:10 6.8 94.0 1026.8 0.0 SSE 0.0 0.0
04:15 6.8 94.0 1026.7 0.0 SSE 0.0 0.0
04:20 6.9 94.0 1026.7 0.0 SSE 0.0 0.0
04:25 7.0 94.0 1026.5 0.0 SSE 0.0 0.0
04:30 7.2 95.0 1026.6 0.0 SSE 0.0 0.0
04:35 7.3 95.0 1026.8 0.0 SSE 0.0 0.0
04:40 7.3 94.0 1026.8 0.0 SSE 0.0 0.0
04:45 7.3 94.0 1026.7 0.0 SSE 0.0 0.0
04:50 7.3 95.0 1026.8 0.0 SSE 0.0 0.0
04:55 7.4 94.0 1026.8 0.0 SSE 0.0 0.0
05:00 7.6 94.0 1026.9 0.0 SSE 0.0 0.0
05:05 7.6 95.0 1027.0 0.0 SSE 0.0 0.0
05:10 7.7 95.0 1027.0 0.0 SSE 0.0 0.0
05:15 7.8 95.0 1026.9 0.0 SSE 0.0 0.0
05:20 7.8 95.0 1026.8 0.0 SSE 0.0 0.0
05:25 7.9 95.0 1027.0 0.0 SSE 0.0 0.0
05:30 7.9 95.0 1027.0 0.0 SSE 0.0 0.0
05:35 7.9 94.0 1026.9 0.0 SSE 0.0 0.0
05:40 7.9 94.0 1026.8 0.0 SSE 0.0 0.0
05:45 7.9 94.0 1026.7 0.0 SSE 0.0 0.0
05:50 7.9 94.0 1026.7 0.0 SSE 0.0 0.0
05:55 7.9 94.0 1026.4 0.0 SSE 0.0 0.0
06:00 7.9 94.0 1026.5 0.0 SSE 0.0 0.0
06:05 7.9 94.0 1026.6 0.0 SSE 0.0 0.0
06:10 8.0 94.0 1026.6 0.0 SSE 0.0 0.0
06:15 8.1 94.0 1026.7 0.0 SSE 0.0 0.0
06:15 8.1 94.0 1026.7 0.0 SSE 0.0 0.0
06:25 8.2 94.0 1026.7 0.0 SSE 0.0 0.0
06:30 8.2 94.0 1026.8 0.0 SSE 0.0 0.0
06:35 8.3 94.0 1027.0 0.0 SSE 0.0 0.0
06:40 8.3 94.0 1027.1 0.0 SSE 0.0 0.0
06:45 8.4 94.0 1027.2 0.0 SSE 0.0 0.0
06:50 8.4 94.0 1027.3 0.0 SSE 0.0 0.0
06:55 8.4 94.0 1027.3 0.0 SSE 0.0 0.0
07:00 8.3 94.0 1027.5 0.0 SSE 1.6 0.0
07:05 8.3 94.0 1027.6 0.0 SSE 1.6 0.0
07:10 8.3 94.0 1027.6 0.0 SSE 1.6 0.0
07:15 8.3 94.0 1027.5 0.0 SSE 0.0 0.0
07:20 8.4 94.0 1027.6 0.0 SSE 0.0 0.0
07:25 8.4 94.0 1027.5 0.0 SSE 0.0 0.0
07:30 8.6 94.0 1027.6 0.0 SSE 0.0 0.0
07:35 8.7 95.0 1027.6 0.0 SSE 0.0 0.0
07:40 8.8 94.0 1027.4 0.0 SSE 0.0 0.0
07:45 8.9 94.0 1027.5 0.0 SSE 0.0 0.0
07:50 9.1 94.0 1027.6 0.0 SSE 0.0 0.0
07:55 9.1 94.0 1027.5 0.0 SSE 0.0 0.0
08:00 9.2 94.0 1027.6 0.0 SSE 0.0 0.0
08:05 9.2 94.0 1027.6 0.0 SSE 0.0 0.0
08:10 9.2 94.0 1027.6 0.0 SSE 1.6 0.0
08:15 9.2 93.0 1027.5 0.0 SSE 1.6 0.0
08:20 9.2 93.0 1027.4 0.0 SSE 0.0 0.0
08:25 9.2 93.0 1027.5 0.0 SSE 0.0 0.0
08:30 9.3 93.0 1027.5 0.0 SSE 0.0 0.0
08:30 9.4 93.0 1027.6 0.0 SSE 0.0 0.0
08:35 9.4 93.0 1027.6 0.0 SSE 1.6 0.0
08:40 9.6 93.0 1027.5 0.0 SSE 1.6 0.0
08:45 9.8 93.0 1027.6 0.0 SSE 0.0 0.0
08:50 9.9 93.0 1027.7 0.0 SSE 0.0 0.0
08:55 10.1 93.0 1027.8 1.6 NNE 4.8 0.0
09:00 10.3 93.0 1028.0 1.6 N 4.8 0.0
09:05 10.5 92.0 1028.1 3.2 NNE 4.8 0.0
09:10 10.6 92.0 1028.1 0.0 NNE 4.8 0.0
09:15 10.8 91.0 1028.1 0.0 NNE 3.2 0.0
09:20 10.9 90.0 1028.2 1.6 NNE 3.2 0.0
09:25 11.0 90.0 1028.1 0.0 NNE 3.2 0.0
09:30 11.2 89.0 1028.0 0.0 NNE 3.2 0.0
09:35 11.3 88.0 1028.1 0.0 NNE 1.6 0.0
09:40 11.4 89.0 1028.0 0.0 NNE 0.0 0.0
09:45 11.6 89.0 1028.0 0.0 NNE 0.0 0.0
09:50 11.8 88.0 1027.9 0.0 NNE 0.0 0.0
09:55 12.1 88.0 1027.9 0.0 NNE 0.0 0.0
10:00 12.3 87.0 1027.9 1.6 NNE 3.2 0.0
10:05 12.6 87.0 1028.0 0.0 NNE 3.2 0.0
10:10 12.8 86.0 1028.0 0.0 NNE 3.2 0.0
10:15 13.1 86.0 1027.9 0.0 W 0.0 0.0
10:20 13.3 84.0 1028.0 0.0 WNW 0.0 0.0
10:25 13.6 84.0 1028.2 3.2 N 6.4 0.0
10:30 13.7 84.0 1028.1 0.0 N 6.4 0.0
10:35 13.9 84.0 1028.0 3.2 NNW 6.4 0.0
10:40 14.1 83.0 1027.9 1.6 N 6.4 0.0
10:45 14.3 82.0 1027.9 0.0 N 6.4 0.0
10:50 14.5 81.0 1028.0 0.0 NW 6.4 0.0
11:00 14.7 80.0 1027.9 0.0 NNW 4.8 0.0
11:05 14.9 80.0 1027.8 1.6 NNE 6.4 0.0
11:10 15.1 79.0 1027.8 0.0 NNE 6.4 0.0
11:15 15.3 79.0 1027.7 0.0 NNE 4.8 0.0
11:20 15.4 78.0 1027.5 1.6 NNW 6.4 0.0
11:25 15.6 77.0 1027.3 0.0 N 6.4 0.0
11:30 15.7 78.0 1027.3 1.6 N 4.8 0.0
11:35 15.8 76.0 1027.1 3.2 NNE 4.8 0.0
11:40 15.8 77.0 1027.1 3.2 N 6.4 0.0
11:45 15.9 76.0 1027.1 0.0 NW 4.8 0.0
11:50 16.2 74.0 1027.1 0.0 NW 0.0 0.0
11:55 16.3 74.0 1026.9 4.8 N 6.4 0.0
12:00 16.3 74.0 1026.9 0.0 N 8.0 0.0
12:05 16.4 74.0 1026.9 0.0 NW 8.0 0.0
12:10 16.4 74.0 1027.0 8.0 N 9.7 0.0
12:15 16.6 73.0 1027.0 1.6 NNE 9.7 0.0
12:20 16.7 74.0 1027.0 3.2 WNW 8.0 0.0
12:25 16.8 73.0 1026.9 0.0 NNW 8.0 0.0
12:30 16.9 73.0 1026.7 0.0 WNW 8.0 0.0
12:35 17.1 71.0 1026.8 4.8 NNE 12.9 0.0
12:40 17.2 72.0 1026.7 0.0 NW 12.9 0.0
12:45 17.1 71.0 1026.6 3.2 N 6.4 0.0
12:50 17.1 69.0 1026.6 3.2 NNE 6.4 0.0
12:55 17.1 71.0 1026.6 0.0 N 8.0 0.0
13:00 17.1 70.0 1026.6 3.2 NNW 8.0 0.0
13:05 17.1 70.0 1026.4 4.8 NNE 8.0 0.0
13:10 17.1 69.0 1026.4 0.0 SW 9.7 0.0
13:15 16.9 69.0 1026.4 6.4 NE 9.7 0.0
13:20 16.8 71.0 1026.3 4.8 NNE 9.7 0.0
13:25 16.7 70.0 1026.3 4.8 NNE 9.7 0.0
13:30 16.7 70.0 1026.3 0.0 NNW 8.0 0.0
13:35 16.6 72.0 1026.3 4.8 N 8.0 0.0
13:40 16.5 71.0 1026.3 1.6 W 8.0 0.0
13:45 16.5 72.0 1026.3 3.2 N 11.3 0.0
13:50 16.5 71.0 1026.2 3.2 NNE 9.7 0.0
13:55 16.4 71.0 1026.2 0.0 W 9.7 0.0
14:00 16.4 71.0 1026.2 3.2 NNE 9.7 0.0
14:05 16.4 71.0 1026.2 1.6 NNW 9.7 0.0
14:10 16.5 71.0 1026.2 1.6 NNW 9.7 0.0
14:15 16.6 72.0 1026.3 0.0 WNW 9.7 0.0
14:20 16.6 70.0 1026.2 0.0 NW 9.7 0.0
14:25 16.6 69.0 1026.2 1.6 WNW 6.4 0.0
14:25 16.6 71.0 1026.3 0.0 N 9.7 0.0
14:35 16.6 71.0 1026.2 1.6 N 8.0 0.0
14:40 16.6 71.0 1026.2 3.2 N 6.4 0.0
14:45 16.6 71.0 1026.3 0.0 NNW 8.0 0.0
14:45 16.5 70.0 1026.3 0.0 N 8.0 0.0
14:50 16.5 71.0 1026.3 0.0 N 8.0 0.0
15:00 16.4 70.0 1026.2 1.6 NNE 4.8 0.0
15:00 16.4 71.0 1026.3 1.6 NNE 4.8 0.0
15:05 16.4 70.0 1026.3 3.2 NNE 4.8 0.0
15:10 16.4 70.0 1026.4 0.0 NNE 6.4 0.0
15:15 16.4 71.0 1026.4 3.2 NNE 4.8 0.0
15:20 16.4 70.0 1026.4 0.0 NNE 4.8 0.0
15:25 16.4 70.0 1026.4 0.0 NNE 4.8 0.0
15:30 16.4 71.0 1026.4 1.6 NNE 4.8 0.0
15:35 16.4 70.0 1026.4 1.6 NNE 4.8 0.0
15:40 16.4 72.0 1026.4 0.0 NNE 4.8 0.0
15:45 16.4 71.0 1026.5 3.2 NNE 4.8 0.0
15:50 16.4 71.0 1026.4 1.6 NE 6.4 0.0
15:55 16.3 72.0 1026.6 1.6 NE 6.4 0.0
16:00 16.3 72.0 1026.5 1.6 NE 4.8 0.0
16:05 16.2 73.0 1026.5 1.6 NE 4.8 0.0
16:10 16.2 72.0 1026.5 0.0 NE 4.8 0.0
16:15 16.1 72.0 1026.5 0.0 NE 1.6 0.0
16:20 15.9 72.0 1026.5 0.0 NE 0.0 0.0
16:25 15.8 73.0 1026.4 0.0 NE 0.0 0.0
16:30 15.6 74.0 1026.5 0.0 NE 0.0 0.0
16:35 15.4 75.0 1026.6 0.0 NE 0.0 0.0
16:40 15.3 76.0 1026.5 0.0 NE 0.0 0.0
16:45 15.1 78.0 1026.4 0.0 NE 0.0 0.0
16:50 14.8 78.0 1026.6 0.0 NE 0.0 0.0
16:55 14.7 79.0 1026.7 0.0 NE 0.0 0.0
17:00 14.4 79.0 1026.7 0.0 NE 0.0 0.0
17:05 14.2 79.0 1026.7 0.0 NE 0.0 0.0
17:10 13.9 80.0 1026.7 0.0 NE 0.0 0.0
17:15 13.8 80.0 1026.8 0.0 NE 0.0 0.0
17:20 13.6 81.0 1026.8 0.0 NE 1.6 0.0
17:25 13.3 81.0 1026.9 0.0 NE 1.6 0.0
17:30 13.2 82.0 1026.9 0.0 NE 1.6 0.0
17:35 13.1 82.0 1026.9 0.0 NE 1.6 0.0
17:40 12.9 82.0 1026.9 0.0 NE 0.0 0.0
17:45 12.8 83.0 1027.0 0.0 NE 0.0 0.0
17:50 12.6 83.0 1027.1 0.0 NE 0.0 0.0
17:55 12.5 83.0 1027.1 0.0 NE 1.6 0.0
18:00 12.4 84.0 1027.3 3.2 S 3.2 0.0
18:05 12.3 84.0 1027.4 0.0 S 3.2 0.0
18:10 12.2 84.0 1027.3 0.0 S 0.0 0.0
18:15 12.1 84.0 1027.4 0.0 S 0.0 0.0
18:20 11.9 84.0 1027.4 0.0 S 0.0 0.0
18:25 11.8 85.0 1027.5 0.0 S 0.0 0.0
18:30 11.7 85.0 1027.5 0.0 S 0.0 0.0
18:35 11.6 85.0 1027.4 0.0 S 0.0 0.0
18:40 11.5 86.0 1027.4 0.0 S 0.0 0.0
18:45 11.3 86.0 1027.4 0.0 S 0.0 0.0
18:50 11.2 86.0 1027.5 0.0 S 0.0 0.0
18:55 11.1 87.0 1027.5 0.0 S 0.0 0.0
19:00 11.1 87.0 1027.4 0.0 S 0.0 0.0
19:05 11.0 87.0 1027.3 0.0 S 1.6 0.0
19:10 10.9 88.0 1027.5 0.0 S 1.6 0.0
19:15 10.8 88.0 1027.5 0.0 S 0.0 0.0
19:20 10.8 88.0 1027.5 0.0 S 0.0 0.0
19:25 10.8 88.0 1027.5 0.0 S 0.0 0.0
19:30 10.7 88.0 1027.4 0.0 S 0.0 0.0
19:35 10.6 88.0 1027.4 0.0 S 0.0 0.0
19:40 10.6 88.0 1027.4 0.0 S 0.0 0.0
19:45 10.4 88.0 1027.4 0.0 S 0.0 0.0
19:50 10.4 88.0 1027.5 0.0 S 0.0 0.0
19:55 10.4 89.0 1027.5 0.0 S 0.0 0.0
20:00 10.3 89.0 1027.5 0.0 S 0.0 0.0
20:05 10.3 89.0 1027.4 0.0 S 0.0 0.0
20:10 10.2 89.0 1027.5 0.0 S 0.0 0.0
20:15 10.2 89.0 1027.5 0.0 S 0.0 0.0
20:20 10.1 89.0 1027.6 0.0 S 0.0 0.0
20:25 10.0 89.0 1027.6 0.0 S 0.0 0.0
20:30 9.9 89.0 1027.7 0.0 S 0.0 0.0
20:35 9.9 90.0 1027.7 0.0 S 0.0 0.0
20:40 9.8 90.0 1027.7 0.0 S 0.0 0.0
20:45 9.8 90.0 1027.8 0.0 S 0.0 0.0
20:50 9.8 90.0 1027.9 0.0 S 0.0 0.0
20:55 9.7 90.0 1027.9 0.0 S 0.0 0.0
21:00 9.6 90.0 1027.9 0.0 S 0.0 0.0
21:05 9.6 90.0 1027.8 0.0 S 0.0 0.0
21:10 9.5 90.0 1027.9 0.0 S 0.0 0.0
21:15 9.4 90.0 1027.9 0.0 S 0.0 0.0
21:20 9.3 91.0 1027.9 0.0 S 0.0 0.0
21:25 9.3 91.0 1027.9 0.0 S 0.0 0.0
21:30 9.3 91.0 1028.0 0.0 S 0.0 0.0
21:35 9.2 91.0 1028.0 0.0 S 0.0 0.0
21:40 9.2 91.0 1027.9 0.0 S 0.0 0.0
21:45 9.1 91.0 1027.9 0.0 S 0.0 0.0
21:50 9.1 91.0 1028.0 0.0 S 0.0 0.0
21:55 9.0 91.0 1027.9 0.0 S 0.0 0.0
22:00 8.9 91.0 1028.0 0.0 S 0.0 0.0
22:05 8.9 91.0 1028.0 0.0 S 0.0 0.0
22:10 8.8 91.0 1028.0 0.0 S 0.0 0.0
22:15 8.8 92.0 1028.0 0.0 S 0.0 0.0
22:20 8.8 92.0 1028.0 0.0 S 0.0 0.0
22:25 8.8 92.0 1028.0 0.0 S 0.0 0.0
22:30 8.7 92.0 1028.1 0.0 S 0.0 0.0
22:35 8.7 92.0 1028.0 0.0 S 0.0 0.0
22:40 8.6 92.0 1028.1 0.0 S 0.0 0.0
22:45 8.4 91.0 1028.0 0.0 S 0.0 0.0
22:50 8.3 92.0 1028.0 0.0 S 0.0 0.0
22:55 8.3 92.0 1028.1 0.0 S 0.0 0.0
23:00 8.3 92.0 1028.1 0.0 S 0.0 0.0
23:05 8.3 92.0 1028.0 0.0 S 0.0 0.0
23:10 8.3 92.0 1028.0 0.0 S 0.0 0.0
23:15 8.3 92.0 1028.0 0.0 S 0.0 0.0
23:20 8.2 92.0 1028.0 0.0 S 0.0 0.0
23:25 8.2 93.0 1028.0 0.0 S 0.0 0.0
Màxima 17.2 95.0 1028.2 8.0 N 12.9 0.0
Mínima 6.3 69.0 1025.5
Total 0.0